Flag for Germany Past Weather in Neustadt an der Weinstraße, Rhineland-Palatinate, Germany — Yesterday and Last 2 Weeks

Now
82 °F

Sunny.


Feels Like: 82 °F
Forecast: 58 / 92 °F
Wind: 1 mph from East

Location: Mannheim City

Current Time: Aug 25, 2016 at 8:54:20 PM

Latest Report: Aug 25, 2016 at 8:20 PM


Visibility: 10 mi

Pressure: 29.98 "Hg

Humidity: 42%

Dew Point: 57 °F

Location of Neustadt an der WeinstraßeLocation

Past Weather in Neustadt an der Weinstraße — Graph

°F

Neustadt an der Weinstraße Temperature Yesterday

Maximum temperature yesterday: 90 °F (at 4:50 PM)
Minimum temperature yesterday: 59 °F (at 5:20 AM)
Average temperature yesterday: 79 °F

High & Low Weather Summary for the Past Weeks

 TemperatureHumidityPressure
High91 °F (Aug 25, 4:20 PM)100% (Aug 11, 5:20 AM)30.39 "Hg (Aug 11, 5:20 AM)
Low45 °F (Aug 11, 6:20 AM)23% (Aug 25, 4:50 PM)29.80 "Hg (Aug 18, 4:20 PM)
Average71 °F63%30.11 "Hg
* Reported Aug 10 7:20 PM — Aug 25 7:20 PM, Neustadt an der Weinstraße, Weather by CustomWeather, © 2016

Note: Actual official high and low records may vary slightly from our data, if they occured in-between our weather recording intervals... More about our weather records

Advertising

Neustadt an der Weinstraße Weather History for the Previous 24 Hours

Scroll right to see more
 ConditionsComfort  
Time TempWeatherWind HumidityBarometerVisibility
7:20 PM
Thu, Aug 25
90 °FPassing clouds.6 mph26%29.98 "HgN/A
6:50 PM91 °FSunny.6 mph23%29.98 "Hg10 mi
6:20 PM91 °FPassing clouds.6 mph23%29.98 "HgN/A
5:50 PM91 °FPassing clouds.8 mph23%29.98 "HgN/A
5:20 PM91 °FPassing clouds.7 mph24%30.01 "HgN/A
4:50 PM91 °FPassing clouds.6 mph23%30.01 "HgN/A
4:20 PM91 °FPassing clouds.6 mph24%30.01 "HgN/A
3:50 PM90 °FPassing clouds.5 mph27%30.01 "HgN/A
3:20 PM90 °FSunny.5 mph31%30.04 "Hg10 mi
2:50 PM88 °FPassing clouds.5 mph33%30.04 "HgN/A
2:20 PM86 °FSunny.3 mph38%30.04 "Hg10 mi
1:50 PM86 °FSunny.3 mph38%30.04 "Hg10 mi
1:20 PM84 °FPassing clouds.7 mph40%30.07 "HgN/A
12:50 PM84 °FPassing clouds.8 mph43%30.07 "HgN/A
12:20 PM82 °FPassing clouds.8 mph42%30.07 "HgN/A
11:50 AM81 °FPassing clouds.7 mph48%30.07 "HgN/A
11:20 AM81 °FPassing clouds.8 mph48%30.07 "HgN/A
10:50 AM81 °FPassing clouds.7 mph48%30.09 "HgN/A
10:20 AM79 °FPassing clouds.7 mph48%30.09 "HgN/A
9:50 AM77 °FPassing clouds.9 mph51%30.09 "HgN/A
9:20 AM75 °FPassing clouds.9 mph50%30.09 "HgN/A
8:50 AM75 °FPassing clouds.6 mph54%30.09 "HgN/A
8:20 AM73 °FPassing clouds.7 mph57%30.09 "HgN/A
7:50 AM73 °FPassing clouds.7 mph57%30.09 "HgN/A
7:20 AM68 °FClear.3 mph73%30.09 "Hg10 mi
6:50 AM63 °FClear.2 mph83%30.09 "Hg10 mi
6:20 AM63 °FClear.1 mph83%30.09 "Hg10 mi
5:50 AM66 °FClear.1 mph73%30.09 "Hg10 mi
5:20 AM68 °FClear.3 mph69%30.09 "Hg10 mi
8:50 PM
Wed, Aug 24
79 °FSunny.2 mph54%30.12 "Hg10 mi
8:20 PM84 °FSunny.3 mph43%30.12 "Hg10 mi
Weather by CustomWeather, © 2016

See weather overviewHow to use our weather pages